Dewpoint
27 28 29 30 31 38 44 56 64 65 66 65 65 64 64 64 63 64 65 66 65 66 66 64 64 65 63 62 62 62 61 60 60 60 59 60 60 60 60 60 59 58 58
30 28 28 37 37 42 46 46 58 65 66 65 64 64 64 64 63 63 64 64 64 65 65 65 63 63 62 62 62 60 59 59 61 58 56 54 56 59 60 59 58 58 57
30 32 38 39 42 44 44 45 48 51 60 64 63 63 62 62 61 61 62 63 63 64 64 64 63 62 61 60 60 60 59 57 59 59 56 53 51 55 58 58 57 56 56
31 31 40 42 42 44 48 48 51 51 52 53 59 61 61 59 60 61 61 62 64 64 64 64 63 61 60 60 60 60 59 57 56 58 58 55 55 53 52 56 57 56 55
25 32 39 41 42 45 48 50 51 51 52 53 55 61 60 61 60 60 60 60 63 64 64 63 62 61 60 59 59 59 58 58 57 57 57 55 55 55 53 51 54 56 56
35 38 39 42 46 46 47 47 47 48 50 53 54 61 60 60 59 60 60 61 61 63 62 63 62 61 60 59 59 59 58 58 57 57 56 55 54 53 53 52 53 53 54
35 38 43 44 44 45 45 45 46 46 47 49 51 54 61 60 59 60 60 60 60 61 62 62 62 60 59 59 59 58 58 57 57 57 56 56 56 55 54 52 53 52 54
40 43 43 42 43 44 45 45 44 44 45 48 50 51 53 61 60 60 61 60 60 61 62 62 61 60 59 59 59 58 58 57 57 57 56 56 56 56 55 53 52 51 52
41 41 42 42 43 44 45 44 44 44 44 45 47 48 52 58 60 60 60 61 61 61 62 62 61 60 60 59 58 58 57 57 56 56 56 56 57 57 56 55 53 50 49
42 42 42 43 43 44 44 44 43 42 42 43 44 46 49 52 60 60 59 61 61 61 61 61 61 60 59 59 58 57 57 56 56 56 56 56 57 57 56 56 55 54 51
40 40 40 41 41 41 41 41 41 41 41 41 42 44 46 51 59 59 59 60 60 60 61 60 59 59 58 58 58 57 57 56 56 56 56 55 56 56 56 56 55 54 53
39 39 39 39 39 39 39 39 39 39 40 40 41 43 46 56 58 58 59 60 59 60 59 58 58 58 58 58 57 56 56 55 55 55 55 55 56 56 56 55 54 54 53
37 37 37 36 37 37 37 37 38 38 38 39 39 42 45 58 58 58 59 59 59 59 59 58 58 58 57 56 56 56 56 55 55 55 55 55 55 55 55 55 54 54 54
35 35 35 34 35 36 36 36 36 37 38 37 38 41 44 56 58 58 58 58 58 58 58 58 58 57 56 56 56 56 55 56 55 55 55 55 55 55 55 54 54 53 53
34 34 34 34 33 34 34 35 36 36 37 37 38 40 44 55 57 58 58 58 57 56 57 58 57 56 56 55 55 55 54 54 54 55 55 55 54 50 53 54 54 53 52
33 33 33 32 32 32 33 34 35 35 36 36 37 39 47 55 56 57 57 57 56 55 56 56 56 55 55 46 46 52 54 53 53 53 53 53 49 48 46 46 47 51 52
32 32 32 31 32 32 33 34 34 34 35 35 36 37 40 56 56 56 56 56 56 55 54 55 55 55 55 44 45 45 53 53 53 52 52 51 51 49 49 39 38 37 37
31 32 32 31 31 32 32 34 33 33 32 33 34 35 37 45 56 56 56 56 56 55 54 54 55 53 47 43 43 43 53 52 52 52 52 51 50 49 44 39 35 33 34
31 32 32 31 32 31 32 33 32 31 31 31 32 34 36 38 54 55 55 56 55 55 51 51 48 44 41 39 42 46 52 51 48 45 43 51 50 42 41 37 32 31 30
30 31 32 30 31 31 31 33 32 31 30 30 32 33 35 35 38 51 55 54 48 42 39 35 35 36 38 37 40 46 50 41 37 35 35 35 42 38 38 37 34 30 28
29 29 30 29 29 31 31 30 31 30 30 31 31 32 33 34 34 38 45 42 37 35 32 31 31 32 33 35 39 42 44 37 33 32 32 33 35 36 36 37 35 31 27
28 28 28 28 29 30 30 29 30 31 31 30 29 29 31 33 33 33 35 35 34 31 30 28 27 29 31 33 35 36 35 35 32 30 31 32 33 32 31 30 29 28 27
28 29 28 27 27 28 29 27 31 31 31 29 27 27 29 30 32 31 31 30 31 29 28 27 26 25 27 29 31 31 31 30 29 29 29 29 29 28 28 28 28 26 25
28 28 27 25 25 26 28 29 31 32 30 29 28 27 26 27 29 29 30 29 28 27 27 26 25 25 26 26 27 27 28 28 27 26 26 26 26 26 26 25 25 25 25
27 27 26 25 24 26 27 29 29 30 30 29 29 27 26 26 27 28 28 28 29 29 27 27 28 26 26 28 29 28 27 28 28 28 27 26 25 24 24 24 24 24 24
25 24 24 24 24 25 26 28 29 28 28 28 28 28 27 26 25 26 26 30 31 32 32 32 30 31 32 32 32 31 31 30 28 26 24 24 23 22 22 21 21 21 20
Lifted_Index
3 3 3 3 3 3 3 0 -3 -5 -5 -5 -5 -5 -5 -5 -5 -4 -5 -5 -4 -4 -4 -4 -4 -4 -3 -3 -2 -2 -1 -1 -1 -0 0 1 1 1 1 1 2 2 3
3 3 3 3 3 3 3 1 -2 -4 -5 -5 -5 -5 -5 -5 -5 -5 -4 -4 -4 -4 -4 -4 -4 -4 -3 -2 -2 -2 -1 -1 -0 0 1 1 1 1 1 2 2 2 3
2 2 2 2 2 2 2 2 0 -2 -3 -3 -4 -4 -5 -5 -5 -5 -4 -4 -4 -4 -3 -3 -3 -3 -3 -2 -1 -1 -1 -0 0 1 1 1 1 1 2 2 2 3 3
1 1 1 2 2 2 2 2 1 1 -0 -1 -2 -3 -4 -4 -4 -4 -4 -3 -3 -3 -3 -3 -3 -3 -3 -2 -1 -0 0 0 1 1 1 1 1 1 2 2 3 3 3
1 1 1 2 2 3 2 2 2 2 2 1 0 -1 -2 -3 -3 -3 -3 -3 -2 -2 -3 -3 -3 -3 -2 -2 -0 0 1 1 1 1 1 1 1 1 2 3 3 3 3
1 1 1 2 3 3 4 4 3 3 2 2 1 -0 -1 -2 -2 -2 -2 -2 -1 -1 -2 -2 -3 -3 -3 -2 -0 1 1 1 1 2 2 2 1 1 2 3 3 3 4
1 1 1 2 3 4 4 4 3 3 2 2 2 1 -0 -1 -2 -2 -1 -1 -0 -1 -1 -2 -2 -3 -3 -2 -0 1 1 1 1 2 2 2 2 2 2 3 3 3 4
0 1 1 2 3 3 4 4 4 3 3 4 4 3 2 0 -1 -1 -1 -0 -0 -0 -1 -1 -2 -2 -2 -2 -0 1 1 1 1 2 2 2 2 3 3 3 3 3 4
-0 0 1 2 2 2 3 4 5 5 5 6 6 5 4 2 -0 -1 -0 -0 -1 -1 -0 -1 -1 -2 -2 -1 0 1 1 1 1 2 2 2 2 3 3 3 3 4 4
0 1 2 2 1 1 2 4 5 6 6 6 7 6 5 3 1 -0 0 -0 -1 -1 -0 -0 -0 -1 -2 -1 0 1 1 1 1 1 2 2 2 3 3 3 4 4 4
0 1 1 1 0 1 2 3 5 6 6 6 6 5 4 2 1 1 1 0 -1 -1 -1 -0 0 -0 -1 -0 1 1 1 1 1 1 1 2 2 3 3 3 4 4 5
0 0 0 0 1 1 2 4 5 5 6 6 6 5 3 2 1 1 1 1 -0 -1 -1 0 1 1 1 0 1 1 1 2 2 2 2 2 3 3 3 3 4 4 5
0 1 1 2 2 3 3 4 5 5 6 6 6 5 3 2 2 2 1 1 -0 -0 -0 0 1 2 2 1 1 1 1 2 2 2 2 2 3 3 3 3 4 4 4
2 2 3 3 3 4 4 5 5 5 6 6 6 5 3 3 2 2 2 1 0 -0 0 1 1 2 2 1 1 2 2 2 2 2 2 2 2 3 3 3 3 4 4
3 3 4 4 4 4 5 5 5 6 6 6 6 5 4 3 3 2 2 1 1 0 1 1 1 2 2 2 2 2 2 2 2 2 2 2 2 3 3 3 3 4 4
4 4 5 5 5 5 6 6 7 7 7 7 6 4 3 3 3 3 2 2 1 1 1 1 1 2 2 2 2 2 2 2 3 3 3 3 3 3 3 3 3 4 4
5 5 6 6 6 7 7 8 8 9 9 8 7 5 4 3 3 3 3 2 1 1 1 1 1 2 2 3 3 3 3 3 3 3 3 4 4 4 4 4 4 4 4
6 6 6 7 7 8 9 9 10 11 11 10 8 6 4 3 3 3 2 1 1 1 1 1 1 2 2 3 3 4 4 4 4 4 4 4 4 4 4 4 4 4 4
6 7 7 7 8 9 9 10 11 11 11 11 9 7 5 3 2 2 1 1 1 1 1 1 1 1 2 3 4 4 4 4 4 4 4 4 4 5 5 5 5 5 5
6 6 7 7 8 9 9 9 10 10 11 12 10 8 6 3 2 1 0 0 0 1 1 1 1 1 2 3 4 4 4 4 4 4 4 4 4 4 5 5 5 5 5
6 6 7 7 7 8 9 9 9 10 11 12 11 10 7 4 2 1 0 0 1 1 1 1 1 1 2 3 3 3 4 4 4 5 5 4 4 4 4 4 5 5 5
6 7 7 7 7 8 8 8 9 10 11 12 12 11 9 7 5 2 1 1 1 1 1 1 1 2 2 2 2 3 4 4 5 5 5 4 4 4 4 5 5 5 5
6 7 7 7 7 8 8 8 9 10 11 11 11 12 11 10 8 6 4 2 2 1 2 2 2 2 2 2 2 3 4 4 5 5 5 4 4 4 5 5 6 6 6
7 7 7 7 7 8 8 9 9 10 10 9 10 11 11 11 10 9 7 6 4 4 3 3 3 3 3 3 4 4 5 5 5 5 5 5 5 5 6 7 8 9 10
8 8 8 7 8 8 9 10 10 11 10 9 10 11 11 11 11 11 10 10 9 8 7 7 7 6 6 7 8 8 7 7 7 7 7 6 6 6 7 9 10 12 12
9 9 8 8 8 9 9 10 11 11 10 9 10 10 11 12 11 11 11 13 13 12 11 10 10 10 10 11 11 10 10 10 9 9 7 7 7 8 9 10 11 13 14